www.pogodaiklimat.ru

Архив погоды в Яссы (Румыния)

Время
(UTC), дата
13 18.09
14 18.09
15 18.09
16 18.09
17 18.09
18 18.09
19 18.09
20 18.09
21 18.09
22 18.09
23 18.09
00 19.09
01 19.09
02 19.09
03 19.09
04 19.09
05 19.09
06 19.09
08 19.09
07 19.09
08 19.09
09 19.09
10 19.09
11 19.09
12 19.09
13 19.09
14 19.09
15 19.09
16 19.09
17 19.09
18 19.09
19 19.09
20 19.09
21 19.09
22 19.09
23 19.09
00 20.09
01 20.09
02 20.09
03 20.09
04 20.09
05 20.09
06 20.09
07 20.09
08 20.09
09 20.09
10 20.09
11 20.09
12 20.09
13 20.09
14 20.09
15 20.09
16 20.09
17 20.09
18 20.09
19 20.09
20 20.09
21 20.09
22 20.09
23 20.09
00 21.09
01 21.09
02 21.09
03 21.09
04 21.09
05 21.09
06 21.09
07 21.09
08 21.09
09 21.09
10 21.09
11 21.09
12 21.09
13 21.09
14 21.09
15 21.09
16 21.09
17 21.09
18 21.09
19 21.09
20 21.09
21 21.09
22 21.09
23 21.09
00 22.09
01 22.09
02 22.09
03 22.09
04 22.09
05 22.09
06 22.09
07 22.09
08 22.09
09 22.09
10 22.09
11 22.09
12 22.09
13 22.09
14 22.09
15 22.09
16 22.09
17 22.09
18 22.09
19 22.09
20 22.09
21 22.09
22 22.09
23 22.09
00 23.09
01 23.09
02 23.09
03 23.09
04 23.09
05 23.09
06 23.09
07 23.09
08 23.09
09 23.09
10 23.09
11 23.09
12 23.09
13 23.09
14 23.09
15 23.09
16 23.09
17 23.09
18 23.09
19 23.09
20 23.09
21 23.09
22 23.09
23 23.09
00 24.09
01 24.09
02 24.09
03 24.09
04 24.09
05 24.09
06 24.09
07 24.09
08 24.09
09 24.09
10 24.09
11 24.09
12 24.09
13 24.09
14 24.09
15 24.09
16 24.09
17 24.09
18 24.09
19 24.09
20 24.09
21 24.09
22 24.09
23 24.09
00 25.09
01 25.09
02 25.09
03 25.09
04 25.09
05 25.09
06 25.09
07 25.09
08 25.09
09 25.09
10 25.09
11 25.09
12 25.09
13 25.09
Ветер
(напр.,м/с)
Видим. Явления Облачность Т
(С)
Тd
(С)
f
(%)
Тe
(С)
Тes
(С)
Комфортность P
(гПа)
Po
(гПа)
Тmin
(С)
Tmax
(С)
R
(мм)
R24
(мм)
S
(см)
СЗ 3-7
{10}
10 км 8/5 600 м
[Cu Sc Ac lent]
+17.8 +7.7 52 +18 +19 1002.8 993.9
СЗ 3-7
{7}
10 км 6/5 600 м
[Sc diur, vesp Ac lent]
+17.4 +7.5 52 +17 +18 1003.6 994.7
СЗ 3-7
{10}
10 км 8/5 600 м
[Sc diur, vesp Ac lent]
+16.0 +6.7 54 +16 +16 1004.6 995.7
СЗ 2-5
{7}
10 км 8/6 600 м
[Sc diur, vesp Ac lent]
+15.1 +6.8 58 +15 +15 1005.6 996.6
З 1-2
{5}
10 км 9/6 600 м
[Sc Ac As]
+14.3 +7.5 64 +15 +15 1006.7 997.7
СЗ 1-3
{4}
10 км 9/6 600 м
[Sc Ac As]
+13.3 +8.0 70 +14 +14 1007.7 998.6 +13.3 +19.9 0
СЗ 1-2
{2}
10 км 3/3 600 м
[Sc]
+10.9 +7.9 82 +11 +11 1008.7 999.5
штиль 0-1
{2}
10 км ясно +8.8 +7.5 92 +8 +8 1009.0 999.8
З 1-1
{2}
10 км ясно +8.5 +8.2 98 +8 +8 1009.3 1000.1
З 1-2
{2}
10 км ясно +9.0 +7.7 92 +8 +8 1009.5 1000.3
З 2-3
{3}
10 км ясно +10.2 +5.5 73 +9 +9 1009.8 1000.6
З 2-3
{3}
10 км 4/0
[Ac lent]
+9.3 +5.8 79 +8 +8 1010.2 1001.0 0
З 1-1
{2}
10 км 1/0
[Ac lent]
+7.5 +5.5 87 +7 +7 1010.5 1001.2
З 1-2
{2}
10 км 3/0
[Ac lent]
+7.2 +5.5 89 +6 +6 1010.6 1001.3
З 1-1
{2}
10 км 3/0
[Ac lent]
+6.7 +5.4 91 +6 +6 1011.0 1001.7
З 1-2
{2}
10 км 5/0
[Ac lent Cs]
+7.2 +5.0 86 +6 +6 1011.4 1002.1
З 2-3
{3}
10 км 8/1 600 м
[Sc Ac lent Cs]
+9.0 +4.8 75 +7 +8 1012.0 1002.7
З 1-3
{4}
10 км 8/1 600 м
[Sc Cs]
+11.2 +5.0 66 +11 +13 1012.3 1003.2 +6.7 +13.3 0
ЮЗ 1-4
{5}
10 км 8/1 600 м
[Sc Ac trans Cs]
+15.8 +5.4 50 +17 +21 1012.3 1003.3
ЮЗ 2-4
{4}
10 км 8/1 600 м
[Sc Ac trans Cs]
+13.1 +5.1 58 +13 +15 1012.3 1003.2
ЮЗ 1-4
{5}
10 км 8/1 600 м
[Sc Ac trans Cs]
+15.8 +5.4 50 +17 +21 1012.3 1003.3
ЮЗ 2-5
{7}
10 км 8/1 600 м
[Cu Sc Ac trans Cs]
+17.0 +4.9 45 +17 +22 1012.7 1003.7
ЮЗ 2-4
{7}
10 км 6/0
[Ac trans Cs]
+16.7 +4.5 44 +17 +25 1012.5 1003.5
З 2-5
{6}
10 км 6/1 600 м
[Cu hum Ac lent Cs]
+18.3 +4.2 39 +19 +25 1012.4 1003.4
ЮЗ 2-5
{6}
10 км 8/4 600 м
[Cu med, cong Ac As Ci fib]
+18.3 +4.9 41 +19 +22 1012.1 1003.2 0
З 2-5
{6}
10 км 8/4 600 м
[Cu med, cong Ac As]
+18.3 +3.9 38 +19 +21 1011.8 1002.8
ЮЗ 2-6
{6}
10 км 9/4 600 м
[Sc diur, vesp Ac As Cs]
+17.3 +4.1 41 +18 +19 1012.3 1003.3
ЮЗ 2-4
{5}
10 км 8/4 600 м
[Sc diur, vesp Ac As Cs]
+16.7 +5.0 46 +17 +17 1012.2 1003.2
штиль 0-2
{4}
10 км 8/4 600 м
[Sc diur, vesp Ac As Cs]
+14.7 +6.1 56 +15 +15 1012.2 1003.2
ЮВ 1-1
{1}
10 км 10/5 600 м
[Sc Ac As]
+13.5 +7.1 65 +14 +14 1012.3 1003.2
ЮЗ 1-5
{5}
10 км 10/5 600 м
[Sc Ac As]
+14.6 +7.5 62 +15 +15 1012.8 1003.7 +11.2 +19.5 0
ЮЗ 1-3
{5}
10 км в посл. час дождь 9/5 600 м
[Sc Ac As]
+13.7 +8.3 70 +14 +14 1012.8 1003.7 0.1
ЮЗ 1-2
{2}
10 км 8/5 600 м
[Sc Ac As]
+12.1 +8.9 81 +12 +12 1012.7 1003.6
З 1-2
{2}
10 км {дождь} 9/6 600 м
[Sc Ac As]
+11.7 +8.9 83 +12 +12 1012.3 1003.2 0.1
З 1-2
{2}
10 км 10/6 600 м
[Sc Ac As]
+12.4 +8.8 79 +12 +12 1012.3 1003.1
З 2-4
{7}
10 км слаб. дождь 10/6 600 м
[Sc Ac As]
+10.9 +9.1 89 +10 +10 1013.1 1003.9 0.5
ЮЗ 1-3
{4}
4000 м дождь 10/6 300 м
[Frnb As op]
+10.0 +9.8 99 +9 +9 1013.7 1004.5 5 0
З 1-2
{3}
4000 м дождь 10/6 300 м
[Frnb As op]
+9.9 +9.9 100 +9 +9 1013.4 1004.2 4
З 1-3
{3}
2000 м слаб. дождь 10/6 300 м
[Frnb As op]
+9.9 +9.7 99 +9 +9 1013.2 1003.9 0.9
СЗ 2-5
{5}
2000 м дождь 10/8 300 м
[Frnb As op]
+9.6 +9.4 99 +8 +8 1013.0 1003.8 8
СЗ 1-5
{5}
2000 м слаб. дождь 10/6 300 м
[Frnb As op]
+9.1 +8.9 99 +8 +8 1013.3 1004.1 2
СЗ 1-4
{5}
10 км слаб. дождь 10/6 300 м
[Frnb As op]
+8.7 +8.0 95 +8 +8 1013.6 1004.3 0.2
З 2-6
{6}
10 км в посл. час дождь 9/3 300 м
[Frnb Ac As Cs]
+9.2 +8.0 92 +7 +8 1014.0 1004.7 +8.6 +14.7 2 14.5 0
З 2-5
{6}
10 км 9/4 300 м
[Cu hum Ac As Cs]
+10.4 +7.8 84 +9 +11 1014.2 1005.0
З 3-7
{7}
10 км 9/6 600 м
[Cu hum Cs]
+11.4 +7.3 76 +10 +12 1014.4 1005.2
СЗ 3-7
{8}
10 км 10/8 600 м
[Cu med, cong Cs]
+12.8 +6.9 67 +12 +13 1014.2 1005.1
З 4-8
{8}
10 км 9/6 600 м
[Cu med, cong Cs]
+13.5 +6.3 62 +12 +14 1014.0 1004.9
СЗ 3-9
{10}
10 км 9/4 600 м
[Cu med, cong Ac cuf Cs]
+15.1 +5.4 52 +15 +17 1013.9 1004.8
СЗ 3-9
{9}
10 км 9/8 600 м
[Sc diur, vesp Cs]
+15.0 +5.5 53 +14 +16 1013.8 1004.8 0
СЗ 2-7
{8}
10 км 6/4 600 м
[Sc diur, vesp Cs]
+15.9 +4.2 46 +16 +19 1013.7 1004.7
СЗ 3-7
{9}
10 км 6/4 600 м
[Sc diur, vesp Cs]
+15.1 +3.1 44 +15 +16 1013.8 1004.7
З 2-6
{6}
10 км 6/4 600 м
[Sc diur, vesp Cs]
+14.9 +4.7 50 +15 +15 1013.9 1004.8
СЗ 1-3
{4}
10 км 9/3 600 м
[Sc diur, vesp Cs]
+14.4 +4.5 51 +15 +15 1014.0 1004.9
СЗ 1-3
{3}
10 км 8/4 600 м
[Sc diur, vesp Cs]
+11.9 +4.7 61 +12 +12 1014.5 1005.3
З 1-1
{3}
10 км 6/3 600 м
[Sc Cs]
+10.4 +6.5 77 +10 +10 1015.0 1005.8 +9.2 +16.3 0
З 1-2
{2}
10 км 6/6 600 м
[Sc]
+10.5 +7.1 79 +10 +10 1015.5 1006.3
З 1-1
{2}
10 км 6/6 600 м
[Sc]
+10.5 +7.1 79 +10 +10 1015.8 1006.6
З 1-2
{2}
10 км 5/5 600 м
[Sc]
+10.1 +7.0 81 +10 +10 1016.1 1006.9
СЗ 1-1
{2}
10 км 5/4 600 м
[Sc Ac lent]
+8.4 +7.0 91 +8 +8 1016.3 1007.0
З 1-3
{3}
10 км 8/8 600 м
[Sc]
+9.2 +7.1 87 +9 +9 1016.4 1007.1
штиль 0-1
{2}
10 км 6/5 600 м
[Sc Ac lent]
+8.2 +7.1 93 +7 +7 1016.4 1007.1 0
ЮЗ 1-1
{1}
10 км 8/5 600 м
[Sc Ac lent Ci fib]
+7.7 +7.3 97 +7 +7 1016.4 1007.0
штиль 0-1
{2}
10 км 9/9 600 м
[Sc]
+9.4 +7.6 89 +9 +9 1016.2 1007.0
З 1-3
{3}
10 км 8/8 600 м
[Sc]
+9.5 +7.4 87 +9 +9 1016.2 1006.9
З 2-3
{3}
10 км 8/8 600 м
[Sc]
+9.9 +7.5 85 +8 +8 1016.1 1006.9
З 1-3
{4}
10 км 10/6 600 м
[Sc Ac As]
+10.1 +7.6 84 +10 +10 1016.5 1007.3
З 2-4
{4}
10 км 10/8 600 м
[Sc Ac As]
+10.9 +7.4 79 +10 +10 1016.8 1007.5 +7.5 +10.9 0
СЗ 2-6
{6}
10 км в посл. час дождь 10/6 600 м
[Sc Ac As]
+11.1 +8.2 82 +10 +10 1017.1 1007.9 0.1
З 3-6
{6}
10 км 9/6 300 м
[Cu Sc Ac As]
+12.6 +8.4 76 +11 +12 1017.3 1008.1
СЗ 2-5
{7}
10 км в посл. час ливневой дождь 10/6 300 м
[Cb calv Ac As]
+12.5 +9.2 80 +12 +13 1017.3 1008.1 0.2
СЗ 2-5
{7}
10 км 9/5 600 м
[Cu Sc Ac As]
+13.9 +9.0 72 +13 +16 1016.9 1007.8
СЗ 2-5
{7}
10 км 9/5 600 м
[Cu Sc Ac As]
+14.8 +8.4 65 +15 +17 1016.6 1007.6
СЗ 2-6
{7}
10 км {ливн. дождь, дождь} 9/6 300 м
[Cb calv Ac As]
+14.6 +7.6 63 +14 +16 1016.3 1007.2 0
З 1-2
{8}
10 км в посл. час ливневой дождь 8/8 300 м
[Cb calv]
+13.2 +10.3 83 +13 +15 1016.5 1007.4
СЗ 1-4
{5}
10 км в посл. час ливневой дождь 9/5 600 м
[Cu Sc Ac As]
+14.1 +9.7 75 +14 +15 1016.3 1007.2 0.3
СЗ 1-2
{3}
10 км {ливн. дождь} 9/5 600 м
[Cu Sc Ac As]
+15.4 +9.8 69 +16 +16 1016.1 1007.0 0.3
СВ 2-4
{6}
10 км слаб. ливневой дождь 9/6 600 м
[Cb calv Ac As]
+12.2 +9.8 85 +11 +11 1017.0 1007.9 0.5
СЗ 1-2
{3}
10 км слаб. ливневой дождь 9/6 300 м
[Cb calv Ac As]
+11.2 +10.1 93 +11 +11 1017.2 1008.0 1
З 1-3
{3}
10 км в посл. час ливневой дождь 10/5 600 м
[Cb calv Ac As]
+10.9 +10.0 94 +10 +10 1017.9 1008.7 +10.6 +15.8 2 0
З 1-2
{3}
10 км 6/4 600 м
[Cb calv Ac As]
+10.0 +10.0 100 +9 +9 1018.1 1008.8
З 2-2
{2}
10 км 8/4 600 м
[Cb calv Ac As]
+9.5 +9.5 100 +8 +8 1017.9 1008.7
З 1-2
{2}
10 км 6/4 600 м
[Sc diur, vesp Ac As]
+9.1 +9.1 100 +8 +8 1018.0 1008.7
З 1-2
{2}
10 км 9/5 600 м
[Sc Ac As]
+9.2 +9.2 100 +8 +8 1017.9 1008.7
З 2-3
{3}
10 км 9/5 600 м
[Sc Ac As]
+9.6 +9.2 97 +8 +8 1017.8 1008.5
З 1-2
{2}
10 км в посл. час дождь 9/6 600 м
[Sc Ac As]
+9.6 +9.6 100 +9 +9 1017.7 1008.4 0.1 0
З 1-2
{2}
10 км 9/5 600 м
[Sc Ac As]
+9.9 +9.7 99 +9 +9 1017.4 1008.2
З 1-3
{3}
10 км 9/5 600 м
[Sc Ac As]
+10.1 +9.8 98 +9 +9 1017.3 1008.1
З 1-2
{3}
10 км 8/6 600 м
[Sc Ci fib]
+10.3 +9.6 95 +10 +10 1017.3 1008.1
СЗ 1-3
{3}
10 км 8/6 600 м
[Sc Ci fib]
+10.3 +9.4 94 +10 +10 1017.6 1008.4
З 1-2
{3}
10 км 10/8 300 м
[St Ac As]
+10.4 +10.0 97 +10 +10 1017.7 1008.4
СЗ 1-2
{3}
10 км 9/9 300 м
[Sc]
+11.2 +10.0 92 +11 +11 1017.7 1008.5 +9.1 +11.4 2.4 0
СЗ 2-5
{5}
10 км 9/9 300 м
[Sc]
+11.8 +9.6 86 +11 +11 1017.7 1008.5
СЗ 2-4
{4}
10 км 9/6 600 м
[Sc Ac As]
+12.7 +9.3 80 +12 +13 1017.6 1008.5
СЗ 2-6
{6}
10 км 10/6 600 м
[Cu Sc Ac As]
+13.1 +8.9 76 +12 +14 1017.5 1008.3
С 2-5
{6}
10 км слаб. дождь 9/6 600 м
[Cu Sc Ac As]
+13.6 +8.8 73 +13 +15 1017.4 1008.2
СЗ 2-5
{7}
10 км слаб. ливневой дождь 9/6 600 м
[Cb calv Ac As]
+12.0 +9.0 82 +11 +13 1017.4 1008.2
З 1-3
{4}
4000 м ливневой дождь 10/8 600 м
[Cb calv As op]
+11.0 +10.8 99 +11 +11 1017.1 1007.9 5 0
Ю 1-2
{5}
10 км ливневой дождь 9/6 600 м
[Cb calv Ac As]
+10.8 +10.8 100 +10 +11 1017.0 1007.8 4
З 1-2
{2}
10 км слаб. дождь {ливн. дождь} 10/6 600 м
[Cb calv Ac As]
+12.0 +10.8 92 +12 +12 1017.1 1007.9 0.1
З 1-1
{9}
4000 м в посл. час дождь {ливн. дождь} 9/6 300 м
[Cb calv Ac As]
+10.5 +9.5 94 +10 +10 1017.3 1008.1 5
З 1-1
{2}
10 км 8/4 600 м
[Cb calv Ac As Ci sp]
+11.4 +10.9 97 +11 +11 1017.5 1008.3
З 1-2
{2}
10 км 9/5 600 м
[Sc diur, vesp Ac As Ci fib]
+10.9 +10.1 95 +10 +10 1017.7 1008.5
З 1-3
{3}
10 км {ливн. дождь, дождь} 4/4 600 м
[Sc]
+10.3 +9.0 92 +10 +10 1018.4 1009.1 +10.2 +14.7 0
З 1-2
{2}
10 км 3/3 600 м
[Sc]
+9.4 +9.4 100 +9 +9 1018.6 1009.3
штиль 0-1
{3}
10 км ясно +7.7 +7.7 100 +7 +7 1018.5 1009.2
З 1-1
{2}
10 км 4/4 600 м
[Sc]
+7.9 +7.9 100 +7 +7 1018.7 1009.4
штиль 0-1
{2}
10 км 5/5 600 м
[Sc]
+7.7 +7.7 100 +7 +7 1018.7 1009.3
ЮЗ 1-1
{2}
10 км 5/5 600 м
[Sc]
+7.8 +7.8 100 +7 +7 1018.5 1009.1
ЮЗ 1-2
{2}
10 км 4/4 600 м
[Sc]
+7.3 +7.3 100 +6 +6 1018.3 1009.0 0
ЮЗ 1-3
{3}
10 км 9/5 600 м
[Sc Ac As]
+7.9 +7.7 99 +7 +7 1018.2 1008.8
З 1-3
{3}
10 км 10/6 600 м
[Sc Ac As]
+8.2 +7.9 98 +7 +7 1018.3 1009.0
З 1-3
{3}
10 км 10/6 600 м
[Sc Ac As]
+8.3 +7.9 97 +7 +7 1018.5 1009.2
З 1-2
{2}
10 км 10/8 300 м
[Sc Ac As]
+8.5 +8.0 97 +8 +8 1018.6 1009.2
З 1-2
{2}
4000 м дымка 9/5 300 м
[Sc Ac und Cs]
+8.7 +8.4 98 +8 +8 1018.5 1009.2
СЗ 1-3
{4}
4000 м дымка 10/8 300 м
[Sc Cs]
+9.4 +8.2 92 +9 +9 1018.6 1009.3 +7.0 +10.2 9.8 0
СЗ 2-4
{5}
4000 м слаб. дождь 10/8 300 м
[Sc Cs]
+10.3 +8.2 87 +9 +10 1018.8 1009.5
СЗ 2-4
{5}
4000 м в посл. час дождь 9/6 300 м
[Sc Ac lent Cs]
+10.9 +8.5 85 +10 +11 1018.8 1009.6
СЗ 2-4
{5}
4000 м дымка {дождь} 9/6 300 м
[Cu Sc Ac lent Cs]
+11.8 +8.5 80 +11 +13 1018.5 1009.3 0.0
СЗ 2-5
{5}
10 км 9/6 300 м
[Cu med, cong Ac lent Cs]
+12.8 +7.9 72 +12 +14 1018.2 1009.0
СЗ 2-5
{8}
10 км 9/6 600 м
[Cu med, cong Ac lent Cs]
+13.8 +8.2 69 +13 +16 1018.2 1009.1
С 2-6
{7}
10 км {дождь} 9/6 600 м
[Cu med, cong Ac lent Cs]
+15.4 +7.6 60 +15 +17 1017.6 1008.5 0
СЗ 2-5
{6}
10 км 9/6 600 м
[Cb calv Cs]
+14.9 +7.6 62 +15 +16 1017.3 1008.2
СЗ 2-4
{6}
10 км 9/4 600 м
[Sc diur, vesp Ac lent Cs]
+14.1 +7.5 64 +14 +15 1017.0 1007.9
СЗ 2-4
{5}
10 км 10/4 600 м
[Sc diur, vesp Ac lent Cs]
+13.3 +7.0 66 +13 +13 1017.4 1008.2
СЗ 1-3
{4}
10 км 10/4 600 м
[Sc diur, vesp Cs]
+12.6 +7.0 69 +13 +13 1017.2 1008.1
штиль 0-1
{3}
10 км 10/4 600 м
[Sc diur, vesp Ac lent Cs]
+10.6 +7.0 78 +10 +10 1017.8 1008.6
СЗ 1-2
{2}
10 км 10/6 600 м
[Sc Ac As]
+10.2 +8.2 87 +10 +10 1018.1 1008.8 +9.4 +15.4 0
З 2-4
{5}
10 км 6/4 600 м
[Sc Ac As]
+10.0 +7.4 84 +8 +8 1018.1 1008.8
штиль 0-1
{3}
10 км 6/4 600 м
[Sc Ac lent]
+8.1 +7.5 96 +7 +7 1018.2 1008.9
штиль 0-1
{1}
10 км 5/3 600 м
[Sc Ac lent]
+7.7 +7.5 99 +7 +7 1018.3 1008.9
З 1-2
{2}
10 км 6/3 600 м
[Sc Cs]
+8.2 +7.3 94 +7 +7 1018.1 1008.8
З 1-2
{3}
10 км 9/4 600 м
[Sc Cs]
+8.2 +7.3 94 +7 +7 1018.1 1008.8
З 1-2
{3}
10 км 9/4 600 м
[Sc Cs]
+8.0 +7.0 93 +7 +7 1018.0 1008.7 0
З 1-2
{3}
10 км 10/4 600 м
[Sc Ac lent Cs]
+8.3 +6.9 91 +7 +7 1017.9 1008.6
З 1-2
{3}
10 км 10/5 600 м
[Sc Ac As]
+8.5 +6.8 89 +8 +8 1017.8 1008.5
З 1-1
{2}
10 км 9/9 600 м
[Sc]
+8.2 +7.0 92 +7 +7 1017.7 1008.4
штиль 0-1
{2}
10 км 9/8 600 м
[Sc Ac lent]
+7.2 +6.8 97 +6 +6 1018.0 1008.6
З 1-1
{2}
10 км 6/6 600 м
[Sc]
+7.0 +6.3 95 +6 +6 1018.2 1008.9
З 1-2
{3}
10 км 6/6 600 м
[Sc]
+9.0 +6.7 85 +8 +9 1018.4 1009.1 +6.8 +10.7 0
З 2-6
{6}
10 км 3/1 600 м
[Sc Ac trans]
+11.3 +6.1 70 +10 +13 1018.7 1009.5
СЗ 2-5
{7}
10 км 4/3 600 м
[Cu Sc Ac lent]
+12.9 +6.7 66 +12 +16 1019.0 1009.8
СЗ 2-5
{6}
10 км 5/5 600 м
[Cu med, cong]
+14.5 +6.0 57 +14 +18 1018.9 1009.8
З 2-5
{7}
10 км 6/6 600 м
[Cu med, cong]
+15.2 +5.2 51 +15 +19 1018.8 1009.7
З 3-7
{7}
10 км 8/8 600 м
[Cb calv]
+14.8 +4.2 49 +14 +16 1018.8 1009.7
З 2-6
{9}
10 км 8/8 600 м
[Cb calv]
+15.9 +3.7 44 +16 +17 1018.6 1009.6 0
СЗ 2-5
{6}
10 км 8/8 600 м
[Cb calv]
+15.3 +4.1 47 +15 +16 1018.8 1009.7
СЗ 2-5
{6}
10 км 6/3 600 м
[Cu med, cong Ac lent Ci fib]
+16.5 +3.8 43 +17 +18 1018.3 1009.3
СЗ 1-3
{6}
10 км 8/1 600 м
[Cu med, cong Ac lent Cs]
+16.3 +4.2 45 +17 +18 1018.4 1009.4
СЗ 1-1
{4}
10 км 9/3 600 м
[Sc diur, vesp Cs]
+14.2 +4.9 54 +15 +15 1018.7 1009.5
СЗ 1-1
{1}
10 км 4/0
[Cs]
+10.1 +6.5 78 +10 +10 1019.2 1009.9
штиль 0-1
{1}
10 км 1/0
[Ci fib]
+9.0 +6.6 85 +8 +8 1019.5 1010.2 +8.9 +16.9 0
З 1-1
{1}
10 км ясно +7.9 +6.4 90 +7 +7 1019.8 1010.4
З 1-2
{2}
10 км 4/0
[Ac lent]
+8.4 +6.4 87 +8 +8 1020.0 1010.7
СЗ 1-2
{2}
10 км 5/0
[Ac lent]
+7.4 +5.7 89 +6 +6 1020.2 1010.9
З 1-2
{2}
10 км 5/0
[Ac lent]
+7.9 +5.8 87 +7 +7 1020.2 1010.9
штиль 0-1
{2}
10 км ясно +5.4 +5.2 99 +4 +4 1020.3 1010.9
штиль 0-1
{1}
10 км ясно +4.8 +4.8 100 +4 +4 1020.2 1010.8 0
штиль 0
{1}
10 км ясно +4.4 +4.4 100 +3 +3 1020.2 1010.7
В 1-1
{1}
2000 м дымка ясно +3.7 +3.7 100 +2 +2 1020.0 1010.5
штиль 0-1
{1}
4000 м дымка ясно +3.7 +3.7 100 +2 +2 1019.9 1010.5
В 1-1
{1}
4000 м дымка 4/0
[Ac lent Ci fib]
+3.6 +3.6 100 +2 +2 1019.8 1010.3
СВ 1-1
{1}
10 км 9/0
[Ac lent Cs]
+3.7 +3.7 100 +2 +2 1019.8 1010.3
штиль 0-1
{1}
10 км 5/0
[Ac lent Cs]
+6.3 +5.5 95 +5 +7 1019.7 1010.3 +3.0 +8.9 0
В 1-2
{2}
10 км 8/0
[Ac lent Cc]
+9.2 +6.7 84 +9 +12 1019.8 1010.5
В 1-2
{2}
10 км 8/0
[Ac und Cs]
+12.1 +6.6 69 +12 +17 1019.6 1010.4
штиль 0-3
{3}
10 км 5/0
[Ac trans Cs]
+15.2 +6.4 56 +15 +25 1019.2 1010.1
штиль 0-3
{3}
10 км 8/0
[Ac und Ci fib]
+18.2 +5.0 42 +18 +26 1018.4 1009.4
ЮЗ 2-4
{5}
10 км 8/0
[Ac trans Ci fib]
+18.7 +5.3 41 +20 +25 1017.7 1008.7
ЮЗ 1-4
{4}
10 км 9/0
[Ac trans Cc]
+19.2 +4.2 37 +21 +27 комфорт 1017.4 1008.5 0
Ю 1-3
{4}
10 км 9/0
[Ac und Cc]
+20.3 +5.4 38 +22 +24 комфорт 1016.7 1007.8
Местоположение метеостанции Яссы (Румыния): широта 47.17 долгота 27.63 высота над уровнем моря 104 м.
В архиве по умолчанию представлена погода в Яссы за последнюю неделю. Архивные данные за месяц целиком и за предыдущие месяцы, начиная с января 2011 года, Вы можете получить, выбрав интересующий диапазон дат из раскрывающегося списка и нажав кнопку "Найти!".
*Определитесь, кто Вы:
Внимание! Время в таблицах - всемирное. Для получения местного времени необходимо прибавить поправку, которая равна 2 ч.
Смотрите также архив погоды в соседних городах и на ближайших метеорологических станциях:
Партнеры нашего сайта:      
Пояснения к столбцам:
  • Ветер - указаны скорость ветра в м/с - средняя за 10 мин, порывы в срок и между сроками (в фигурных скобках) и направление, откуда дует ветер: С - северный,
  • СВ - северо-восточный, В - восточный, ЮВ - юго-восточный, Ю - южный, ЮЗ - юго-западный, З - западный, СЗ - северо-западный.
  • Видимость - горизонтальная дальность видимости в метрах или километрах. При видимости от 1 до 10 км при отсутствии осадков обычно наблюдается дымка, при ухудшении видимости до 1 км и менее - туман. В сухую погоду видимость может ухудшаться дымом, пылью или мглою.
  • Явления - указаны атмосферные явления, наблюдавшиеся в срок или в последний час перед сроком; фигурными скобками обозначены явления, наблюдавшиеся между сроками (за 1-3 часа до срока); квадратными скобками обозначены град или гололедные отложения с указанием их диаметра в мм.
  • Облачность - указаны через наклонную черту общая и нижняя облачность в баллах и высота нижней границы облаков в метрах; квадратными скобками обозначены формы облаков: Ci - перистые, Cs - перисто-слоистые, Cc - перисто-кучевые, Ac - высококучевые, As - высокослоистые, Sc - слоисто-кучевые, Ns - слоисто-дождевые, Cu - кучевые, Cb - кучево-дождевые. Подробнее классификацию облаков см. в Атласе облаков (PDF).
  • T - Температура воздуха - температура, измеренная на высоте 2 м над землей.
  • Td - Температура точки росы - температура, при понижении до которой содержащийся в воздухе водяной пар достигнет насыщения.
  • f - Относительная влажность воздуха - влажноcть воздуха, измеренная на высоте 2 м над землей.
  • Te - Эффективная температура - температура, которую ощущает одетый по сезону человек в тени. Характеристика душности погоды. При расчете учитывается влияние влажности воздуха и скорости ветра на теплоощущения человека.
  • Tes - Эффективная температура на солнце - температура, которую ощущает человек, с поправкой на солнечный нагрев. Характеристика знойности погоды. Зависит от высоты солнца над горизонтом, облачности и скорости ветра. Ночью, в пасмурную погоду, а также при ветре 12 м/с и более поправка равна нулю.
  • P - Атмосферное давление - приведенное к уровню моря атмосферное давление.
  • Po - Атмосферное давление - измеренное на уровне метеостанции атмосферное давление.
  • Tmin - Минимальная температура - минимум температуры воздуха на высоте 2 м над землей.
  • Tmax - Максимальная температура - максимум температуры воздуха на высоте 2 м над землей.
  • R - Количество осадков - Количество выпавших осадков за период времени, мм. При наведении курсора мыши на число - период времени, за который выпало указанное количество осадков.
  • R24 - Количество осадков - Количество выпавших осадков за 24 часа, мм.
  • S - Снежный покров - Высота снежного покрова, см. При наведении курсора мыши на число - состояние снежного покрова и степень покрытия местности в баллах.